QPF
0.15 0.14 0.16 0.18 0.19 0.22 0.24 0.27 0.24 0.23 0.19 0.14 0.11 0.09 0.06 0.05 0.05 0.05 0.13 0.16 0.07 0.04 0.04 0.04 0.05 0.06 0.06 0.06 0.04 0.03 0.01 0.01 0.02 0.01 0.02 0.04 0.05 0.02 0.01 0.00 0.00 0.00 0.00
0.18 0.18 0.18 0.19 0.19 0.20 0.21 0.23 0.27 0.28 0.24 0.22 0.15 0.13 0.12 0.10 0.06 0.06 0.08 0.15 0.09 0.04 0.03 0.03 0.04 0.04 0.06 0.07 0.06 0.04 0.03 0.02 0.01 0.01 0.01 0.02 0.04 0.04 0.02 0.01 0.01 0.00 0.01
0.18 0.19 0.19 0.20 0.22 0.24 0.24 0.22 0.23 0.24 0.23 0.20 0.18 0.16 0.14 0.12 0.09 0.11 0.12 0.14 0.13 0.09 0.04 0.02 0.03 0.03 0.05 0.06 0.06 0.05 0.04 0.03 0.03 0.01 0.01 0.01 0.02 0.03 0.03 0.02 0.01 0.01 0.00
0.18 0.18 0.16 0.17 0.23 0.25 0.25 0.25 0.25 0.24 0.23 0.19 0.17 0.17 0.18 0.16 0.12 0.12 0.14 0.14 0.14 0.12 0.10 0.06 0.04 0.03 0.04 0.05 0.08 0.07 0.08 0.06 0.03 0.02 0.01 0.01 0.01 0.01 0.02 0.01 0.01 0.00 0.00
0.11 0.12 0.13 0.15 0.17 0.19 0.19 0.19 0.25 0.24 0.24 0.21 0.18 0.17 0.18 0.16 0.15 0.12 0.12 0.13 0.13 0.12 0.11 0.12 0.08 0.05 0.05 0.05 0.07 0.09 0.09 0.07 0.05 0.04 0.04 0.03 0.02 0.01 0.01 0.01 0.01 0.00 0.00
0.08 0.10 0.11 0.14 0.15 0.15 0.16 0.17 0.19 0.19 0.18 0.19 0.18 0.19 0.18 0.15 0.14 0.13 0.11 0.13 0.12 0.10 0.08 0.12 0.16 0.07 0.05 0.05 0.05 0.06 0.08 0.08 0.08 0.06 0.05 0.04 0.03 0.02 0.01 0.00 0.00 0.00 0.00
0.06 0.08 0.09 0.12 0.12 0.13 0.13 0.14 0.14 0.13 0.12 0.16 0.18 0.19 0.18 0.15 0.13 0.13 0.13 0.10 0.08 0.10 0.13 0.15 0.16 0.15 0.09 0.05 0.03 0.03 0.06 0.09 0.08 0.07 0.05 0.04 0.03 0.03 0.02 0.01 0.00 0.00 0.00
0.04 0.05 0.06 0.06 0.08 0.09 0.09 0.11 0.12 0.11 0.10 0.16 0.18 0.18 0.15 0.13 0.10 0.07 0.10 0.09 0.07 0.09 0.11 0.14 0.14 0.18 0.15 0.14 0.05 0.02 0.03 0.05 0.06 0.06 0.05 0.04 0.04 0.03 0.02 0.01 0.01 0.01 0.01
0.02 0.03 0.03 0.04 0.04 0.04 0.05 0.07 0.07 0.08 0.09 0.12 0.15 0.17 0.15 0.12 0.12 0.11 0.10 0.08 0.09 0.10 0.11 0.13 0.15 0.16 0.15 0.16 0.15 0.07 0.03 0.04 0.05 0.06 0.06 0.04 0.03 0.03 0.02 0.02 0.02 0.01 0.01
0.01 0.02 0.02 0.03 0.03 0.03 0.05 0.06 0.06 0.07 0.08 0.08 0.10 0.11 0.11 0.12 0.12 0.12 0.13 0.11 0.13 0.12 0.12 0.11 0.14 0.18 0.15 0.14 0.16 0.13 0.08 0.05 0.05 0.07 0.07 0.06 0.04 0.03 0.02 0.02 0.02 0.02 0.01
0.01 0.01 0.02 0.03 0.03 0.03 0.03 0.05 0.07 0.07 0.07 0.08 0.08 0.08 0.08 0.09 0.09 0.09 0.10 0.12 0.13 0.10 0.09 0.09 0.11 0.13 0.16 0.16 0.17 0.14 0.13 0.06 0.04 0.05 0.08 0.09 0.08 0.06 0.04 0.03 0.03 0.03 0.02
0.01 0.01 0.01 0.02 0.02 0.02 0.03 0.04 0.04 0.05 0.06 0.07 0.08 0.10 0.09 0.07 0.06 0.07 0.08 0.08 0.09 0.07 0.06 0.07 0.07 0.09 0.12 0.11 0.10 0.14 0.16 0.10 0.07 0.05 0.05 0.08 0.09 0.09 0.06 0.04 0.05 0.07 0.05
0.00 0.00 0.01 0.01 0.01 0.02 0.02 0.03 0.04 0.04 0.05 0.06 0.06 0.06 0.07 0.05 0.04 0.05 0.05 0.05 0.05 0.05 0.07 0.08 0.08 0.08 0.09 0.12 0.11 0.15 0.14 0.13 0.11 0.07 0.05 0.05 0.06 0.07 0.06 0.06 0.06 0.06 0.07
0.00 0.00 0.00 0.01 0.01 0.01 0.02 0.03 0.03 0.03 0.04 0.05 0.05 0.06 0.05 0.03 0.02 0.03 0.04 0.05 0.04 0.04 0.05 0.07 0.08 0.08 0.11 0.12 0.13 0.15 0.12 0.13 0.12 0.11 0.07 0.05 0.05 0.05 0.04 0.05 0.05 0.05 0.05
0.01 0.01 0.01 0.01 0.02 0.02 0.02 0.03 0.03 0.03 0.04 0.04 0.04 0.05 0.05 0.04 0.03 0.02 0.03 0.04 0.05 0.04 0.04 0.06 0.06 0.06 0.08 0.11 0.13 0.13 0.17 0.15 0.10 0.09 0.09 0.07 0.06 0.05 0.05 0.03 0.03 0.03 0.03
0.01 0.01 0.01 0.01 0.02 0.02 0.02 0.03 0.03 0.03 0.04 0.05 0.05 0.05 0.06 0.04 0.04 0.03 0.02 0.03 0.04 0.05 0.04 0.05 0.06 0.06 0.05 0.06 0.09 0.11 0.15 0.17 0.13 0.09 0.09 0.08 0.07 0.05 0.05 0.04 0.03 0.02 0.02
0.01 0.01 0.01 0.01 0.01 0.01 0.02 0.03 0.02 0.02 0.03 0.04 0.04 0.05 0.06 0.06 0.05 0.05 0.04 0.04 0.04 0.05 0.05 0.04 0.06 0.07 0.05 0.05 0.06 0.09 0.11 0.13 0.13 0.11 0.09 0.08 0.07 0.06 0.06 0.07 0.05 0.03 0.02
0.01 0.01 0.01 0.01 0.01 0.01 0.01 0.02 0.02 0.02 0.03 0.03 0.04 0.05 0.05 0.06 0.07 0.06 0.06 0.05 0.04 0.05 0.05 0.05 0.04 0.04 0.05 0.06 0.07 0.08 0.08 0.11 0.13 0.11 0.10 0.08 0.08 0.08 0.07 0.06 0.06 0.05 0.04
0.01 0.01 0.01 0.01 0.01 0.01 0.02 0.02 0.02 0.03 0.03 0.03 0.04 0.04 0.05 0.06 0.06 0.06 0.07 0.07 0.06 0.04 0.05 0.05 0.04 0.03 0.04 0.05 0.07 0.09 0.11 0.13 0.15 0.13 0.12 0.10 0.08 0.08 0.08 0.07 0.07 0.05 0.04
0.01 0.01 0.01 0.01 0.01 0.01 0.02 0.02 0.02 0.02 0.03 0.03 0.03 0.04 0.04 0.05 0.07 0.07 0.07 0.08 0.07 0.07 0.07 0.06 0.06 0.04 0.04 0.05 0.08 0.10 0.14 0.17 0.19 0.17 0.15 0.12 0.10 0.09 0.09 0.09 0.08 0.07 0.05
0.00 0.01 0.01 0.01 0.02 0.02 0.01 0.01 0.01 0.01 0.02 0.03 0.03 0.04 0.04 0.03 0.04 0.05 0.05 0.06 0.08 0.09 0.09 0.08 0.07 0.06 0.05 0.05 0.08 0.11 0.14 0.19 0.23 0.26 0.25 0.17 0.12 0.09 0.07 0.08 0.08 0.08 0.07
0.01 0.01 0.02 0.02 0.02 0.01 0.00 0.00 0.00 0.00 0.01 0.02 0.03 0.04 0.04 0.02 0.02 0.01 0.02 0.03 0.04 0.06 0.08 0.09 0.08 0.07 0.05 0.05 0.08 0.12 0.16 0.18 0.20 0.26 0.33 0.28 0.18 0.13 0.09 0.05 0.05 0.06 0.07
0.01 0.02 0.02 0.03 0.04 0.04 0.01 0.00 0.00 0.00 0.01 0.02 0.03 0.05 0.03 0.02 0.03 0.05 0.04 0.02 0.02 0.01 0.02 0.05 0.07 0.07 0.08 0.07 0.08 0.11 0.18 0.18 0.17 0.20 0.28 0.33 0.28 0.22 0.14 0.08 0.07 0.06 0.06
0.02 0.03 0.03 0.03 0.04 0.04 0.01 0.00 0.00 0.00 0.01 0.02 0.04 0.05 0.07 0.08 0.06 0.07 0.09 0.09 0.07 0.05 0.03 0.02 0.04 0.05 0.07 0.09 0.10 0.11 0.18 0.22 0.20 0.22 0.26 0.32 0.33 0.27 0.20 0.14 0.11 0.08 0.07
0.02 0.02 0.03 0.03 0.04 0.05 0.02 0.00 0.00 0.01 0.02 0.04 0.05 0.06 0.07 0.09 0.07 0.03 0.06 0.09 0.09 0.09 0.04 0.02 0.03 0.04 0.03 0.04 0.07 0.10 0.15 0.19 0.22 0.24 0.26 0.29 0.33 0.32 0.29 0.22 0.14 0.10 0.08
0.02 0.02 0.02 0.03 0.03 0.04 0.02 0.00 0.00 0.01 0.03 0.05 0.07 0.09 0.05 0.03 0.02 0.01 0.05 0.10 0.11 0.11 0.09 0.08 0.06 0.04 0.03 0.03 0.04 0.08 0.13 0.14 0.20 0.24 0.25 0.24 0.29 0.31 0.33 0.27 0.18 0.11 0.08
MSLP
1014.25 1014.54 1014.76 1014.93 1015.08 1015.23 1015.40 1015.58 1015.75 1015.87 1015.90 1015.84 1015.67 1015.44 1015.18 1014.95 1014.81 1014.82 1014.97 1015.28 1015.70 1016.20 1016.73 1017.24 1017.71 1018.11 1018.47 1018.78 1019.08 1019.39 1019.72 1020.09 1020.49 1020.91 1021.34 1021.77 1022.17 1022.53 1022.85 1023.11 1023.34 1023.53 1023.71
1014.18 1014.48 1014.72 1014.91 1015.07 1015.23 1015.39 1015.55 1015.71 1015.82 1015.86 1015.82 1015.68 1015.47 1015.22 1014.97 1014.79 1014.71 1014.77 1014.97 1015.30 1015.73 1016.22 1016.73 1017.22 1017.67 1018.07 1018.42 1018.74 1019.05 1019.36 1019.70 1020.08 1020.49 1020.93 1021.38 1021.83 1022.25 1022.63 1022.95 1023.22 1023.44 1023.64
1013.99 1014.30 1014.56 1014.78 1014.97 1015.14 1015.30 1015.45 1015.59 1015.69 1015.74 1015.71 1015.60 1015.41 1015.17 1014.92 1014.69 1014.54 1014.50 1014.59 1014.81 1015.16 1015.60 1016.09 1016.61 1017.10 1017.55 1017.95 1018.30 1018.62 1018.92 1019.24 1019.59 1019.98 1020.41 1020.89 1021.37 1021.84 1022.28 1022.67 1023.00 1023.27 1023.50
1013.64 1013.97 1014.26 1014.52 1014.74 1014.93 1015.10 1015.24 1015.37 1015.46 1015.51 1015.49 1015.40 1015.24 1015.02 1014.76 1014.50 1014.28 1014.15 1014.13 1014.24 1014.50 1014.88 1015.35 1015.87 1016.40 1016.90 1017.36 1017.75 1018.09 1018.40 1018.70 1019.03 1019.40 1019.83 1020.31 1020.82 1021.34 1021.84 1022.29 1022.68 1023.01 1023.29
1013.17 1013.50 1013.83 1014.13 1014.40 1014.62 1014.80 1014.94 1015.05 1015.13 1015.17 1015.16 1015.10 1014.96 1014.76 1014.51 1014.23 1013.95 1013.74 1013.62 1013.63 1013.79 1014.10 1014.53 1015.04 1015.60 1016.14 1016.65 1017.09 1017.46 1017.79 1018.10 1018.42 1018.78 1019.20 1019.69 1020.22 1020.78 1021.33 1021.84 1022.30 1022.69 1023.01
1012.63 1012.96 1013.32 1013.67 1013.97 1014.23 1014.43 1014.57 1014.67 1014.73 1014.77 1014.76 1014.72 1014.61 1014.44 1014.20 1013.92 1013.61 1013.33 1013.13 1013.04 1013.11 1013.33 1013.70 1014.18 1014.74 1015.31 1015.86 1016.35 1016.77 1017.13 1017.45 1017.78 1018.14 1018.56 1019.05 1019.60 1020.18 1020.77 1021.33 1021.84 1022.28 1022.66
1012.12 1012.44 1012.82 1013.20 1013.54 1013.83 1014.04 1014.18 1014.27 1014.32 1014.35 1014.35 1014.33 1014.25 1014.12 1013.91 1013.64 1013.32 1013.00 1012.72 1012.55 1012.51 1012.64 1012.93 1013.36 1013.89 1014.47 1015.04 1015.56 1016.03 1016.43 1016.78 1017.13 1017.50 1017.93 1018.42 1018.97 1019.56 1020.17 1020.76 1021.31 1021.80 1022.22
1011.74 1012.04 1012.41 1012.81 1013.17 1013.48 1013.70 1013.84 1013.91 1013.95 1013.97 1013.99 1013.98 1013.95 1013.85 1013.69 1013.44 1013.13 1012.78 1012.45 1012.20 1012.07 1012.10 1012.29 1012.65 1013.13 1013.67 1014.24 1014.78 1015.27 1015.71 1016.10 1016.47 1016.86 1017.29 1017.78 1018.33 1018.92 1019.53 1020.13 1020.70 1021.22 1021.67
1011.57 1011.82 1012.17 1012.56 1012.92 1013.22 1013.44 1013.57 1013.64 1013.66 1013.68 1013.70 1013.72 1013.72 1013.67 1013.56 1013.35 1013.06 1012.71 1012.35 1012.03 1011.82 1011.74 1011.83 1012.09 1012.49 1012.98 1013.51 1014.04 1014.54 1014.99 1015.41 1015.80 1016.20 1016.63 1017.12 1017.65 1018.23 1018.83 1019.43 1020.00 1020.53 1021.01
1011.63 1011.82 1012.12 1012.47 1012.81 1013.09 1013.29 1013.40 1013.45 1013.46 1013.47 1013.50 1013.54 1013.57 1013.57 1013.51 1013.35 1013.09 1012.76 1012.38 1012.03 1011.74 1011.58 1011.57 1011.71 1012.01 1012.41 1012.87 1013.35 1013.83 1014.27 1014.69 1015.09 1015.50 1015.93 1016.40 1016.91 1017.47 1018.04 1018.63 1019.20 1019.74 1020.24
1011.88 1012.00 1012.24 1012.54 1012.83 1013.06 1013.22 1013.31 1013.33 1013.33 1013.33 1013.35 1013.41 1013.47 1013.51 1013.49 1013.38 1013.17 1012.86 1012.50 1012.13 1011.80 1011.56 1011.46 1011.50 1011.68 1011.97 1012.33 1012.74 1013.16 1013.56 1013.96 1014.34 1014.74 1015.15 1015.61 1016.10 1016.63 1017.18 1017.75 1018.31 1018.85 1019.38
1012.25 1012.31 1012.48 1012.70 1012.93 1013.10 1013.21 1013.25 1013.24 1013.22 1013.20 1013.22 1013.28 1013.35 1013.42 1013.44 1013.37 1013.21 1012.95 1012.62 1012.26 1011.92 1011.64 1011.46 1011.41 1011.47 1011.65 1011.90 1012.20 1012.53 1012.86 1013.20 1013.55 1013.92 1014.31 1014.75 1015.22 1015.73 1016.26 1016.81 1017.37 1017.92 1018.46
1012.68 1012.68 1012.77 1012.91 1013.05 1013.16 1013.21 1013.20 1013.16 1013.10 1013.06 1013.07 1013.11 1013.19 1013.26 1013.30 1013.28 1013.16 1012.96 1012.68 1012.36 1012.04 1011.75 1011.53 1011.40 1011.37 1011.43 1011.56 1011.74 1011.95 1012.19 1012.46 1012.75 1013.07 1013.43 1013.84 1014.29 1014.79 1015.31 1015.86 1016.41 1016.97 1017.53
1013.07 1013.02 1013.04 1013.11 1013.17 1013.20 1013.19 1013.13 1013.05 1012.96 1012.89 1012.87 1012.88 1012.94 1013.01 1013.06 1013.06 1012.99 1012.85 1012.64 1012.38 1012.11 1011.84 1011.62 1011.45 1011.34 1011.30 1011.31 1011.36 1011.45 1011.58 1011.75 1011.96 1012.23 1012.55 1012.93 1013.37 1013.86 1014.38 1014.93 1015.49 1016.07 1016.65
1013.38 1013.29 1013.26 1013.26 1013.25 1013.22 1013.15 1013.04 1012.92 1012.79 1012.69 1012.62 1012.60 1012.62 1012.67 1012.70 1012.72 1012.69 1012.60 1012.47 1012.29 1012.09 1011.88 1011.69 1011.51 1011.36 1011.23 1011.14 1011.07 1011.04 1011.05 1011.11 1011.24 1011.44 1011.72 1012.08 1012.50 1012.98 1013.51 1014.07 1014.64 1015.23 1015.83
1013.59 1013.48 1013.41 1013.35 1013.28 1013.19 1013.08 1012.94 1012.77 1012.62 1012.48 1012.37 1012.30 1012.27 1012.27 1012.28 1012.29 1012.29 1012.25 1012.19 1012.10 1011.99 1011.86 1011.72 1011.56 1011.40 1011.22 1011.05 1010.88 1010.74 1010.64 1010.60 1010.64 1010.76 1010.99 1011.31 1011.72 1012.20 1012.72 1013.29 1013.87 1014.47 1015.08
1013.70 1013.58 1013.48 1013.38 1013.27 1013.15 1013.00 1012.83 1012.65 1012.46 1012.28 1012.13 1012.01 1011.92 1011.87 1011.84 1011.83 1011.83 1011.84 1011.84 1011.83 1011.81 1011.77 1011.70 1011.59 1011.43 1011.24 1011.01 1010.77 1010.54 1010.34 1010.21 1010.16 1010.22 1010.39 1010.67 1011.04 1011.50 1012.02 1012.58 1013.16 1013.76 1014.37
1013.72 1013.60 1013.48 1013.36 1013.23 1013.09 1012.92 1012.74 1012.54 1012.34 1012.13 1011.94 1011.76 1011.61 1011.50 1011.42 1011.38 1011.37 1011.40 1011.45 1011.51 1011.57 1011.61 1011.62 1011.56 1011.44 1011.25 1011.00 1010.72 1010.42 1010.15 1009.93 1009.81 1009.80 1009.90 1010.13 1010.46 1010.88 1011.37 1011.91 1012.48 1013.06 1013.66
1013.67 1013.54 1013.42 1013.29 1013.16 1013.01 1012.84 1012.66 1012.46 1012.24 1012.01 1011.78 1011.56 1011.36 1011.18 1011.05 1010.97 1010.94 1010.97 1011.05 1011.16 1011.28 1011.39 1011.46 1011.46 1011.38 1011.22 1010.97 1010.67 1010.34 1010.02 1009.74 1009.56 1009.47 1009.51 1009.67 1009.94 1010.30 1010.74 1011.24 1011.77 1012.33 1012.91
1013.55 1013.42 1013.29 1013.17 1013.04 1012.90 1012.75 1012.57 1012.37 1012.15 1011.91 1011.65 1011.39 1011.14 1010.91 1010.72 1010.59 1010.54 1010.55 1010.63 1010.76 1010.93 1011.08 1011.21 1011.26 1011.23 1011.10 1010.88 1010.58 1010.24 1009.90 1009.59 1009.36 1009.22 1009.19 1009.27 1009.47 1009.75 1010.12 1010.55 1011.03 1011.55 1012.11
1013.35 1013.22 1013.10 1012.99 1012.87 1012.75 1012.61 1012.45 1012.26 1012.04 1011.79 1011.51 1011.22 1010.93 1010.66 1010.43 1010.25 1010.16 1010.15 1010.21 1010.34 1010.51 1010.70 1010.85 1010.94 1010.95 1010.86 1010.68 1010.41 1010.09 1009.76 1009.44 1009.17 1008.99 1008.90 1008.91 1009.02 1009.22 1009.50 1009.85 1010.27 1010.74 1011.27
1013.08 1012.96 1012.85 1012.75 1012.65 1012.54 1012.41 1012.27 1012.09 1011.88 1011.62 1011.34 1011.03 1010.72 1010.41 1010.14 1009.93 1009.80 1009.75 1009.78 1009.89 1010.05 1010.23 1010.40 1010.51 1010.55 1010.50 1010.37 1010.15 1009.87 1009.56 1009.26 1008.99 1008.77 1008.63 1008.58 1008.60 1008.72 1008.91 1009.18 1009.53 1009.96 1010.45
1012.76 1012.65 1012.55 1012.46 1012.37 1012.28 1012.17 1012.03 1011.86 1011.65 1011.40 1011.12 1010.80 1010.47 1010.15 1009.86 1009.62 1009.45 1009.36 1009.36 1009.43 1009.56 1009.72 1009.87 1009.99 1010.06 1010.04 1009.95 1009.79 1009.57 1009.31 1009.04 1008.79 1008.57 1008.40 1008.29 1008.25 1008.29 1008.40 1008.60 1008.89 1009.26 1009.73
1012.42 1012.31 1012.22 1012.15 1012.07 1011.99 1011.89 1011.76 1011.59 1011.39 1011.14 1010.86 1010.54 1010.21 1009.89 1009.58 1009.32 1009.12 1009.00 1008.96 1008.99 1009.07 1009.19 1009.32 1009.43 1009.51 1009.52 1009.48 1009.37 1009.22 1009.02 1008.81 1008.59 1008.39 1008.22 1008.09 1008.00 1007.98 1008.03 1008.17 1008.40 1008.74 1009.19
1012.09 1011.99 1011.91 1011.85 1011.78 1011.70 1011.60 1011.47 1011.31 1011.11 1010.87 1010.59 1010.28 1009.96 1009.64 1009.33 1009.06 1008.84 1008.69 1008.61 1008.59 1008.63 1008.70 1008.80 1008.89 1008.97 1009.00 1009.00 1008.95 1008.86 1008.73 1008.59 1008.42 1008.26 1008.11 1007.98 1007.88 1007.82 1007.84 1007.93 1008.13 1008.44 1008.87
1011.81 1011.71 1011.64 1011.58 1011.52 1011.44 1011.35 1011.22 1011.06 1010.86 1010.62 1010.35 1010.05 1009.74 1009.42 1009.12 1008.85 1008.62 1008.45 1008.33 1008.27 1008.26 1008.29 1008.35 1008.42 1008.49 1008.54 1008.56 1008.56 1008.53 1008.48 1008.40 1008.30 1008.19 1008.08 1007.97 1007.88 1007.82 1007.82 1007.90 1008.07 1008.36 1008.77
Thickness
5745 5743 5741 5739 5737 5736 5734 5733 5733 5734 5734 5734 5735 5736 5737 5737 5739 5738 5737 5736 5734 5735 5735 5734 5732 5731 5730 5730 5729 5729 5728 5727 5726 5726 5725 5724 5723 5722 5721 5721 5720 5719 5718
5741 5738 5736 5733 5732 5732 5731 5730 5731 5729 5729 5729 5730 5732 5733 5734 5735 5735 5734 5733 5732 5733 5733 5733 5732 5731 5730 5730 5729 5729 5728 5728 5727 5726 5725 5724 5723 5722 5721 5721 5720 5719 5718
5736 5734 5731 5730 5728 5728 5727 5726 5725 5726 5724 5726 5726 5726 5728 5731 5732 5732 5732 5731 5731 5730 5731 5731 5731 5731 5730 5730 5730 5729 5729 5728 5727 5726 5725 5724 5723 5722 5722 5721 5720 5719 5718
5732 5730 5728 5726 5725 5724 5723 5721 5720 5720 5720 5721 5722 5723 5725 5726 5728 5728 5729 5730 5729 5729 5729 5729 5730 5730 5729 5729 5729 5729 5729 5728 5728 5727 5726 5725 5724 5723 5722 5721 5720 5720 5719
5728 5726 5724 5722 5721 5720 5719 5719 5718 5716 5715 5716 5717 5719 5721 5723 5724 5726 5726 5727 5727 5728 5728 5727 5728 5728 5728 5728 5729 5729 5729 5728 5728 5727 5726 5725 5724 5724 5723 5722 5721 5720 5719
5724 5722 5720 5719 5717 5716 5715 5714 5713 5713 5712 5713 5714 5716 5718 5721 5723 5724 5724 5726 5726 5726 5727 5727 5727 5728 5728 5728 5728 5728 5728 5728 5728 5727 5726 5726 5725 5724 5724 5723 5722 5721 5720
5720 5718 5716 5715 5714 5711 5710 5710 5708 5707 5708 5709 5707 5707 5712 5718 5720 5721 5722 5724 5726 5728 5728 5728 5727 5727 5727 5727 5727 5728 5728 5728 5728 5727 5727 5726 5726 5725 5724 5723 5722 5721 5720
5714 5714 5711 5709 5708 5706 5706 5705 5704 5701 5702 5704 5700 5698 5698 5705 5714 5721 5721 5721 5724 5728 5729 5729 5728 5727 5727 5727 5726 5727 5727 5727 5727 5727 5727 5726 5726 5726 5725 5724 5723 5722 5721
5710 5707 5705 5703 5701 5700 5699 5698 5698 5695 5693 5696 5697 5694 5691 5693 5701 5711 5716 5719 5721 5723 5726 5727 5727 5726 5726 5725 5725 5725 5726 5726 5727 5727 5727 5726 5726 5726 5725 5724 5723 5723 5722
5705 5703 5701 5698 5695 5693 5692 5692 5692 5690 5688 5687 5690 5692 5693 5694 5690 5693 5704 5711 5716 5718 5720 5723 5724 5724 5724 5724 5724 5726 5725 5725 5726 5726 5726 5726 5726 5725 5724 5724 5723 5722 5722
5700 5698 5696 5693 5689 5687 5685 5684 5683 5682 5682 5681 5681 5683 5685 5687 5688 5684 5686 5696 5704 5711 5715 5717 5719 5721 5722 5722 5722 5724 5723 5723 5724 5725 5725 5725 5725 5724 5724 5723 5723 5722 5722
5693 5692 5689 5685 5682 5679 5678 5676 5676 5675 5674 5674 5674 5675 5676 5677 5678 5679 5680 5686 5691 5700 5708 5713 5714 5716 5717 5718 5719 5721 5721 5721 5722 5722 5724 5724 5724 5723 5723 5722 5722 5722 5722
5684 5682 5680 5676 5674 5672 5670 5669 5668 5667 5667 5666 5666 5667 5669 5671 5674 5676 5676 5678 5683 5691 5699 5705 5709 5711 5712 5714 5716 5717 5718 5718 5719 5720 5721 5722 5722 5722 5723 5723 5722 5722 5722
5676 5674 5672 5669 5667 5664 5663 5661 5659 5659 5660 5659 5660 5660 5661 5663 5667 5669 5670 5670 5671 5678 5685 5692 5700 5705 5707 5709 5711 5712 5713 5714 5716 5717 5718 5719 5721 5721 5722 5722 5722 5721 5721
5670 5667 5663 5661 5658 5656 5654 5652 5651 5651 5651 5651 5652 5653 5654 5656 5660 5663 5665 5666 5663 5662 5669 5680 5687 5696 5700 5702 5704 5706 5708 5710 5711 5713 5715 5716 5718 5719 5719 5720 5721 5721 5721
5662 5659 5656 5653 5651 5649 5647 5645 5643 5643 5642 5643 5644 5645 5646 5648 5651 5653 5656 5658 5660 5659 5661 5671 5676 5683 5690 5694 5696 5699 5701 5704 5706 5708 5711 5712 5714 5716 5717 5718 5719 5720 5720
5657 5653 5650 5647 5644 5642 5640 5637 5636 5635 5635 5635 5635 5637 5638 5640 5641 5643 5646 5648 5651 5653 5653 5661 5668 5674 5678 5683 5687 5691 5694 5697 5700 5703 5707 5708 5711 5712 5714 5715 5717 5718 5718
5652 5649 5645 5642 5638 5636 5634 5630 5628 5628 5626 5626 5626 5627 5629 5630 5632 5633 5635 5637 5641 5645 5646 5649 5656 5661 5667 5672 5677 5682 5686 5690 5694 5699 5701 5704 5706 5709 5711 5713 5714 5715 5717
5647 5644 5640 5636 5632 5630 5627 5624 5622 5620 5618 5617 5617 5618 5619 5620 5621 5623 5625 5627 5630 5635 5639 5641 5645 5651 5657 5663 5667 5672 5677 5681 5687 5692 5696 5699 5702 5705 5707 5710 5712 5713 5714
5642 5639 5635 5631 5627 5624 5621 5618 5615 5612 5610 5609 5609 5609 5610 5611 5612 5613 5615 5617 5620 5623 5627 5630 5635 5640 5645 5652 5657 5660 5664 5670 5677 5684 5688 5693 5697 5700 5703 5706 5708 5710 5712
5639 5634 5630 5625 5621 5618 5616 5610 5607 5605 5602 5600 5600 5600 5601 5603 5604 5604 5606 5608 5609 5612 5615 5618 5623 5629 5634 5639 5645 5651 5655 5661 5667 5674 5679 5685 5690 5694 5697 5700 5703 5706 5708
5634 5629 5624 5619 5615 5613 5608 5602 5597 5595 5593 5591 5591 5592 5592 5594 5596 5597 5598 5599 5600 5601 5604 5607 5612 5618 5624 5630 5636 5641 5646 5650 5655 5666 5670 5675 5682 5687 5692 5695 5699 5701 5703
5629 5624 5619 5615 5611 5606 5601 5596 5591 5587 5585 5585 5584 5583 5585 5588 5589 5590 5590 5591 5592 5594 5596 5599 5603 5609 5614 5621 5626 5631 5636 5641 5648 5656 5660 5665 5672 5677 5684 5689 5693 5695 5697
5625 5620 5615 5611 5606 5602 5596 5591 5586 5582 5580 5580 5579 5578 5577 5578 5579 5579 5581 5583 5584 5587 5589 5592 5597 5602 5607 5613 5618 5623 5628 5633 5640 5647 5652 5655 5661 5667 5673 5678 5683 5687 5690
5621 5616 5612 5607 5602 5598 5592 5586 5579 5577 5576 5575 5574 5573 5572 5571 5571 5570 5571 5573 5576 5578 5582 5587 5591 5595 5599 5604 5609 5613 5618 5622 5628 5636 5643 5648 5653 5658 5662 5666 5671 5676 5680
5618 5613 5609 5605 5600 5595 5588 5582 5575 5573 5571 5570 5568 5567 5565 5564 5563 5561 5562 5564 5566 5569 5572 5577 5580 5585 5590 5595 5601 5606 5611 5615 5621 5626 5635 5640 5644 5649 5650 5655 5660 5664 5668